Location: Unspecified
(0.0000°N, 0.0000°E)
Time: 01:09:58
(UTC+00:00)

COSMOS 2251 DEB - Visible Passes

Search period start: 15 August 2022 00:00
Search period end: 25 August 2022 00:00
Orbit: 753 x 1086 km, 74.0° (Epoch: 14 August)

Date Brightness Start Highest point End Pass type
(mag) Time Alt. Az. Time Alt. Az. Time Alt. Az.
15 Aug ? 05:37:21 10° NE 05:41:36 17° ENE 05:45:46 10° ESE visible
15 Aug ? 18:32:46 10° S 18:37:51 64° ESE 18:43:10 10° NNE visible
16 Aug ? 18:41:15 10° SSW 18:46:23 75° WNW 18:51:47 10° N visible
17 Aug ? 18:50:04 10° SSW 18:54:57 43° WNW 19:00:05 10° N visible
18 Aug ? 18:59:15 10° SW 19:03:31 26° WNW 19:07:59 10° NNW visible
19 Aug ? 19:09:08 10° WSW 19:12:08 15° WNW 19:15:12 10° NW visible
20 Aug ? 04:36:18 10° NE 04:39:26 14° ENE 04:42:31 10° ESE visible
21 Aug ? 04:43:03 10° NNE 04:48:06 22° ENE 04:52:58 10° SE visible
22 Aug ? 04:50:40 10° NNE 04:56:44 34° ENE 05:02:30 10° SE visible
23 Aug ? 04:58:44 10° N 05:05:21 53° ENE 05:11:35 10° SSE visible
24 Aug ? 05:07:07 10° N 05:13:56 81° ENE 05:20:21 10° SSE visible
